Location: Demmingen
(48.6757°N, 10.4375°E)
Time: 00:05:01
(UTC+00:00)

CZ-2C R/B - Pass Details

Date: 05 August 2024
Orbit: 703 x 904 km, 98.2° (Epoch: 07 September)

Event Time Altitude Azimuth Distance (km) Brightness Sun altitude
Rises 01:42:55 0° 11° (NNE) 3,134 7.4 -17.6°
Reaches altitude 10° 01:45:09 10° 9° (N) 2,226 6.4 -17.4°
Maximum altitude 01:50:00 69° 288° (WNW) 802 3.0 -16.9°
Enters shadow 01:52:37 28° 212° (SSW) 1,391 3.7 -16.6°
